Location: Freiburg+im+Breisgau
(48.0359°N, 7.8195°E)
Time: 18:56:09
(UTC+01:00)

Tiangong 1 - Visible Passes

Search period start: 25 February 2018 00:00
Search period end: 07 March 2018 00:00
Orbit: 245 x 266 km, 42.8° (Epoch: 25 February)

Date Brightness Start Highest point End Pass type
(mag) Time Alt. Az. Time Alt. Az. Time Alt. Az.
04 Mar 3.2 20:05:02 10° SW 20:05:24 12° SW 20:05:24 12° SW visible
05 Mar 2.6 19:55:25 10° SW 19:56:28 17° SSW 19:56:28 17° SSW visible
06 Mar 2.1 19:45:32 10° SW 19:47:11 21° S 19:47:11 21° S visible
